Flag for Poland Weather past 2 weeks in Bielsko-Biała, Poland

Now
88 °F

Partly sunny.


Feels Like: 85 °F
Forecast: 61 / 90 °F
Wind: 2 mph from Northeast

Location: Katowice

Current Time: Jul 5, 2015 at 8:11:13 PM

Latest Report: Jul 5, 2015 at 7:00 PM


Visibility: 19 mi

Pressure: 29.98 "Hg

Humidity: 29%

Dew point: 51 °F

Location of Bielsko-BiałaLocation

Historic Weather in Bielsko-Biała — Graph

°F

Bielsko-Biała temperature yesterday

Maximum temperature yesterday: 87 °F (at 4:00 PM)
Minimum temperature yesterday: 55 °F (at 4:00 AM)
Average temperature yesterday: 73 °F

Past Weeks' High & Low Weather Summary

 TemperatureHumidityPressure
High92 °F (Jul 5, 3:00 PM)98% (Jul 1, 7:00 AM)30.37 "Hg (Jul 1, 7:00 AM)
Low45 °F (Jun 25, 4:00 AM)23% (Jul 5, 4:00 PM)29.74 "Hg (Jun 23, 6:00 AM)
Average63 °F68%30.12 "Hg
* Reported Jun 20 6:00 PM — Jul 5 6:00 PM, Bielsko-Biała, Weather by CustomWeather, © 2015

Note: Actual official high and low records may vary slightly from our data, if they occured in-between our weather recording intervals... More about our weather records

Advertising

Bielsko-Biała weather history for previous 24 hours

 ConditionsComfort  
Time TempWeatherWind HumidityBarometerVisibility
6:00 PM
Sun, Jul 5
91 °FPartly sunny.2 mph25%29.97 "Hg19 mi
5:00 PM92 °FScattered clouds.2 mph24%29.98 "Hg19 mi
4:00 PM92 °FScattered clouds.N/A23%29.99 "Hg19 mi
3:00 PM92 °FScattered clouds.1 mph26%30.01 "Hg19 mi
2:00 PM90 °FPassing clouds.3 mph28%30.02 "Hg19 mi
1:00 PM89 °FPassing clouds.3 mph30%30.03 "Hg19 mi
12:00 PM87 °FPassing clouds.2 mph35%30.04 "Hg12 mi
11:00 AM86 °FPassing clouds.1 mph40%30.05 "Hg12 mi
10:00 AM83 °FPartly sunny.1 mph47%30.06 "Hg12 mi
9:00 AM79 °FPartly sunny.2 mph52%30.08 "Hg12 mi
8:00 AM74 °FPartly sunny.2 mph60%30.10 "Hg12 mi
7:00 AM69 °FPartly sunny.No wind77%30.11 "Hg9 mi
6:00 AM61 °FPartly sunny.No wind91%30.13 "Hg9 mi
4:00 AM59 °FClear.No wind90%30.13 "Hg9 mi
3:00 AM60 °FClear.No wind89%30.13 "Hg6 mi
2:00 AM62 °FClear.No wind84%30.14 "Hg9 mi
1:00 AM63 °FClear.No wind76%30.14 "Hg9 mi
12:00 AM65 °FClear.1 mph74%30.14 "Hg12 mi
11:00 PM
Sat, Jul 4
66 °FClear.1 mph72%30.14 "Hg12 mi
10:00 PM70 °FClear.1 mph58%30.13 "Hg19 mi
9:00 PM78 °FPassing clouds.2 mph43%30.12 "Hg19 mi
8:00 PM80 °FPassing clouds.2 mph42%30.12 "Hg19 mi
Weather by CustomWeather, © 2015

See weather overviewHow to use our weather pages